[[{"header":{"parameterUnit":"m.s-1","parameterCategory":2,"la1":30.2991,"la2":30.254,"lo1":-89.0895,"lo2":-89.0444,"dy":0.0017,"dx":0.0017,"nx":28,"ny":28,"refTime":"2023-08-13T09:00:00:Z","depth":"0","parameterNumber":2,"parameterNumberName":"U-component_of_CURRENTS"},"data":[0,0,0,0,0,0,0,0,0,0,0,0,0,0,0,0,0,0,0,0,0,0,0,0,0,0,0,0,0,0,0,0,0,0,0,0,0,0,0,0,0,0,0,0,0,0,0,0,0,0,0,0,0,0,0,0,0,0,0.5248,0.5249,0,0.5322,0.5323,0.5323,0.527,0.5268,0.5266,0.5265,0.5332,0.5335,0.5339,0,0,0,0,0,0,0,0,0,0,0,0,0,0.5069,0.5072,0.5248,0.5249,0.525,0.5322,0.5323,0.5323,0.5271,0.5268,0.5266,0.5264,0.5331,0.5335,0.5339,0,0,0,0,0,0,0,0,0,0,0,0,0,0.514,0.5073,0.5247,0.5237,0.5237,0.5322,0.5323,0.5323,0.5271,0.5268,0.5265,0.5263,0.5329,0.5334,0.534,0.5429,0,0,0.5356,0.5358,0,0,0,0,0,0,0,0,0.5136,0.5146,0.5237,0.5238,0.5238,0.5288,0.5284,0.536,0.5272,0.5253,0.5265,0.5261,0.5322,0.5328,0.5341,0.5432,0.5435,0.5356,0.536,0.5362,0.5363,0,0,0,0,0,0,0,0.5131,0.5143,0.5272,0.5239,0.5239,0.5231,0.5238,0.5298,0.5298,0.5254,0.5252,0.5269,0.5321,0.5336,0.5342,0.5436,0.5356,0.5361,0.5364,0.5366,0.563,0.5634,0,0,0,0,0,0,0.5136,0.5139,0.527,0.5275,0.5185,0.5237,0.5244,0.5271,0.5298,0.5301,0.5271,0.5266,0.5328,0.5336,0.5344,0.5445,0.5362,0.5367,0.537,0.5626,0.5631,0.5635,0,0,0,0,0,0,0.5132,0.5147,0.5267,0.5211,0.5226,0.5244,0.5274,0.5274,0.5293,0.5312,0.5313,0.5291,0.5326,0.5337,0.5419,0.5447,0.5369,0.5374,0.5622,0.5628,0.5633,0.5651,0,0,0,0,0,0,0.5127,0.5146,0.5177,0.5212,0.523,0.5346,0.5277,0.5278,0.531,0.5304,0.533,0.5332,0.5325,0.5412,0.5425,0.5453,0.5378,0.5617,0.5624,0.5631,0.5645,0.5656,0.5666,0,0,0,0,0,0.512,0.5187,0.5178,0.5194,0.5269,0.535,0.536,0.5357,0.5314,0.5355,0.5363,0.5332,0.5465,0.542,0.5434,0.5464,0.5613,0.5622,0.5631,0.5641,0.5654,0.5666,0,0,0,0,0,0,0.5135,0.5189,0.518,0.526,0.531,0.5343,0.5387,0.5375,0.5413,0.5398,0.5389,0.5397,0.5492,0.5494,0.5443,0.5569,0.5533,0.5545,0.5536,0.5549,0.5559,0.5569,0.5383,0,0,0,0,0,0.5153,0.5208,0.5256,0.5322,0.5349,0.5366,0.5398,0.5397,0.5431,0.5442,0.5455,0.5482,0.5544,0.5553,0.5622,0.5684,0.5726,0.5716,0.5726,0.5734,0.5758,0.5855,0.5875,0.5663,0.5663,0.5663,0,0,0.5174,0.5215,0.5244,0.5329,0.5357,0.5397,0.5378,0.5441,0.5459,0.545,0.5492,0.5545,0.5583,0.5658,0.5696,0.5649,0.5821,0.5745,0.575,0.5771,0.5866,0.5887,0.5904,0.5669,0.5668,0.5667,0,0,0.5224,0.5284,0.5324,0.537,0.543,0.5451,0.5472,0.5516,0.5526,0.5597,0.5593,0.5673,0.5736,0.5769,0.5791,0.5912,0.5901,0.5915,0.5933,0.6027,0.6044,0.606,0.6141,0.6164,0.5881,0.5881,0.5881,0,0.5237,0.5293,0.5355,0.5395,0.5426,0.5469,0.5499,0.554,0.5599,0.562,0.5618,0.5749,0.5796,0.5868,0.591,0.5933,0.5972,0.5865,0.6036,0.6052,0.6068,0.6148,0.6173,0.5883,0.5882,0.5882,0.5882,0,0.5289,0.5337,0.5378,0.5424,0.5478,0.5534,0.5581,0.5629,0.5649,0.5676,0.5784,0.5862,0.5924,0.5958,0.5971,0.6091,0.6081,0.6061,0.5989,0.609,0.6169,0.6194,0.5885,0.5885,0.5884,0.5884,0,0,0.5276,0.5386,0.5389,0.5393,0.5493,0.5522,0.5594,0.566,0.5664,0.5771,0.5804,0.5959,0.5995,0.603,0.6058,0.6138,0.6302,0.6137,0.6141,0.6191,0.6501,0.6374,0.639,0.6288,0.6293,0.6297,0.651,0,0.5277,0.5335,0.5401,0.5435,0.5459,0.5532,0.5577,0.5643,0.5704,0.5758,0.5878,0.5945,0.6015,0.6034,0.6147,0.6276,0.637,0.6247,0.6421,0.6427,0.6279,0.6416,0.6133,0.6288,0.6534,0.6539,0.6542,0,0.5261,0.5306,0.5347,0.5397,0.5412,0.544,0.5492,0.554,0.5655,0.5709,0.5824,0.5905,0.6085,0.6103,0.6398,0.6306,0.6427,0.6518,0.6526,0.6422,0.6348,0.6233,0.6325,0.6125,0.6581,0.6578,0.6575,0,0.5159,0.5241,0.5264,0.5289,0.5376,0.539,0.5426,0.5516,0.5555,0.5671,0.5721,0.5922,0.6024,0.6236,0.6468,0.6438,0.6761,0.6732,0.6735,0.6727,0.6532,0.6497,0.6427,0.6941,0.6941,0.694,0.694,0,0.5116,0.5113,0.5207,0.5214,0.5215,0.5291,0.5299,0.5361,0.5465,0.5513,0.5679,0.5764,0.6065,0.6272,0.6479,0.6698,0.6786,0.6787,0.6788,0.653,0.6494,0.6346,0.622,0.6948,0.6946,0.6945,0.6943,0,0.4993,0.5066,0.5074,0.5153,0.5168,0.5153,0.5228,0.5232,0.5341,0.5414,0.5461,0.5701,0.5964,0.6238,0.6576,0.6682,0.6711,0.6946,0.6617,0.6575,0.6346,0.6232,0.6091,0.5936,0.6994,0.6993,0.6991,0,0.494,0.4942,0.5002,0.5002,0.5036,0.5043,0.5052,0.5159,0.5185,0.5372,0.5404,0.5658,0.5823,0.6258,0.6489,0.6793,0.663,0.6663,0.6565,0.6323,0.62,0.6033,0.5902,0.6333,0.6327,0.6321,0.6317,0,0.484,0.4861,0.4881,0.4888,0.4889,0.4888,0.4913,0.4932,0.5058,0.5144,0.5286,0.5429,0.5788,0.5956,0.6292,0.6452,0.6284,0.6557,0.6398,0.576,0.5485,0.5335,0.6206,0.6268,0.6273,0.6277,0.6279,0.6281,0.4756,0.4742,0.4774,0.4763,0.4754,0.4724,0.4679,0.474,0.4789,0.4883,0.5106,0.5242,0.546,0.5891,0.6003,0.5927,0.5986,0.5815,0.5733,0.562,0.5329,0.6085,0.6075,0.6078,0.6081,0.6084,0.6086,0,0.4654,0.4659,0.4648,0.4614,0.454,0.459,0.4572,0.4518,0.4522,0.4699,0.4819,0.494,0.5053,0.5224,0.527,0.5141,0.5017,0.5002,0.4691,0.4636,0.5397,0.5221,0.4907,0.4908,0.4908,0.4908,0.4908,0.4909,0.4609,0.4569,0.4568,0.4427,0.4384,0.4252,0.4219,0.4178,0.4252,0.4253,0.4292,0.441,0.4555,0.4615,0.4488,0.4425,0.413,0.3958,0.4011,0.4502,0.4571,0.4636,0.4445,0.3974,0.3972,0.3117,0.3109,0.3103]},{"header":{"parameterUnit":"m.s-1","parameterCategory":2,"la1":30.2991,"la2":30.254,"lo1":-89.0895,"lo2":-89.0444,"dy":0.0017,"dx":0.0017,"nx":28,"ny":28,"refTime":"2023-08-13T09:00:00:Z","depth":"0","parameterNumber":3,"parameterNumberName":"V-component_of_CURRENTS"},"data":[0,0,0,0,0,0,0,0,0,0,0,0,0,0,0,0,0,0,0,0,0,0,0,0,0,0,0,0,0,0,0,0,0,0,0,0,0,0,0,0,0,0,0,0,0,0,0,0,0,0,0,0,0,0,0,0,0,0,0.0834,0.0833,0,0.0817,0.0817,0.0817,0.0732,0.0729,0.0727,0.0726,0.0666,0.0666,0.0666,0,0,0,0,0,0,0,0,0,0,0,0,0,0.0753,0.0755,0.0834,0.0833,0.0833,0.0817,0.0817,0.0817,0.0732,0.0729,0.0727,0.0725,0.0666,0.0666,0.0666,0,0,0,0,0,0,0,0,0,0,0,0,0,0.0768,0.0756,0.0834,0.0789,0.0785,0.0817,0.0817,0.0817,0.0732,0.0729,0.0726,0.0724,0.0666,0.0666,0.0666,0.0729,0,0,0.0668,0.0668,0,0,0,0,0,0,0,0,0.0767,0.0771,0.0796,0.0792,0.0788,0.0773,0.0767,0.0785,0.0733,0.0752,0.0726,0.0722,0.07,0.0698,0.0702,0.0727,0.0724,0.0668,0.0668,0.0668,0.0668,0,0,0,0,0,0,0,0.0766,0.0771,0.0827,0.0796,0.0791,0.0757,0.0756,0.077,0.0742,0.075,0.0744,0.0744,0.0697,0.0701,0.0699,0.0723,0.0668,0.0668,0.0668,0.0669,0.0792,0.0795,0,0,0,0,0,0,0.0775,0.0771,0.0827,0.0826,0.077,0.0761,0.076,0.0781,0.0743,0.0735,0.0746,0.074,0.0702,0.0699,0.0697,0.0784,0.0668,0.0669,0.0669,0.0789,0.0793,0.0796,0,0,0,0,0,0,0.0774,0.0781,0.0828,0.0796,0.08,0.0766,0.079,0.0782,0.0786,0.074,0.073,0.0757,0.07,0.0696,0.0722,0.078,0.0669,0.0669,0.0785,0.079,0.0794,0.0949,0,0,0,0,0,0,0.0772,0.0781,0.0813,0.0798,0.0802,0.087,0.0793,0.0784,0.079,0.0782,0.0748,0.0738,0.0697,0.0722,0.0722,0.0779,0.0669,0.0782,0.0787,0.0793,0.094,0.0958,0.0974,0,0,0,0,0,0.0769,0.0833,0.0815,0.0822,0.0843,0.0873,0.0874,0.0836,0.0794,0.0823,0.0791,0.0739,0.0758,0.0726,0.0725,0.0783,0.0779,0.0786,0.0792,0.0933,0.0955,0.0973,0,0,0,0,0,0,0.0833,0.083,0.081,0.0874,0.0879,0.0859,0.0889,0.0856,0.0856,0.0845,0.0783,0.0776,0.082,0.0788,0.0753,0.0835,0.0759,0.0766,0.0866,0.0886,0.0903,0.0942,0.067,0,0,0,0,0,0.086,0.0895,0.0887,0.0941,0.0949,0.0921,0.093,0.0906,0.0896,0.0892,0.0867,0.0848,0.0854,0.0856,0.0857,0.091,0.087,0.0946,0.0963,0.0977,0.101,0.1012,0.1032,0.0818,0.0818,0.0818,0,0,0.0897,0.0904,0.0923,0.0955,0.0954,0.0994,0.092,0.0952,0.0986,0.089,0.0941,0.0913,0.0883,0.0935,0.0952,0.091,0.1012,0.0986,0.0998,0.1024,0.1021,0.1041,0.106,0.0823,0.0822,0.0821,0,0,0.098,0.1001,0.1045,0.1062,0.1073,0.1067,0.1081,0.1076,0.1078,0.1125,0.106,0.1078,0.1085,0.1079,0.1074,0.1194,0.1104,0.1181,0.1298,0.1299,0.1317,0.1332,0.1281,0.129,0.1186,0.1187,0.1187,0,0.1024,0.1077,0.1067,0.1115,0.114,0.1106,0.116,0.1179,0.1182,0.1204,0.1163,0.1193,0.1165,0.1224,0.1259,0.1236,0.1194,0.1219,0.1321,0.1335,0.1348,0.1292,0.1301,0.1195,0.1194,0.1193,0.1192,0,0.1121,0.1171,0.121,0.1251,0.1286,0.1336,0.1348,0.1388,0.1382,0.1386,0.1448,0.1418,0.1427,0.1426,0.1381,0.1461,0.1386,0.1342,0.1268,0.1379,0.1313,0.1318,0.1207,0.1204,0.1201,0.1199,0,0,0.1193,0.1259,0.1271,0.1303,0.1358,0.1392,0.1482,0.1543,0.1592,0.1615,0.1682,0.1707,0.1672,0.1666,0.161,0.162,0.1661,0.1528,0.1524,0.1476,0.1621,0.1514,0.1508,0.1623,0.1626,0.1628,0.1528,0,0.1265,0.136,0.1384,0.1488,0.1537,0.1558,0.164,0.1694,0.1729,0.1793,0.1793,0.183,0.1767,0.1761,0.1776,0.1703,0.1688,0.1689,0.1525,0.152,0.141,0.1517,0.1425,0.1326,0.1533,0.1534,0.1535,0,0.1342,0.1392,0.1492,0.1583,0.161,0.167,0.1777,0.1847,0.1935,0.1961,0.2012,0.1992,0.2038,0.1946,0.1907,0.1904,0.1785,0.1713,0.1706,0.1565,0.1426,0.1255,0.1327,0.1014,0.1542,0.1542,0.1541,0,0.1361,0.1471,0.1545,0.1579,0.168,0.1735,0.1796,0.1893,0.1964,0.2059,0.211,0.2147,0.2159,0.2081,0.1965,0.1925,0.1892,0.1802,0.1585,0.1572,0.1446,0.1419,0.1202,0.1754,0.1754,0.1754,0.1755,0,0.1421,0.1481,0.1554,0.1594,0.1691,0.1758,0.1874,0.1939,0.2051,0.2162,0.2183,0.2265,0.2195,0.217,0.2028,0.1854,0.1936,0.1637,0.1566,0.1493,0.1472,0.1152,0.1037,0.175,0.1751,0.1752,0.1753,0,0.1425,0.1477,0.1558,0.166,0.1697,0.1761,0.1902,0.1994,0.2089,0.2234,0.2269,0.2359,0.2345,0.224,0.2113,0.1919,0.1587,0.1658,0.1559,0.1479,0.095,0.0849,0.0623,0.0521,0.139,0.1387,0.1385,0,0.143,0.147,0.1577,0.1624,0.1668,0.1773,0.1863,0.1991,0.2102,0.2301,0.238,0.2423,0.2506,0.2291,0.1984,0.1714,0.149,0.1363,0.1278,0.0936,0.0772,0.0701,0.0629,0.1148,0.1144,0.1141,0.1138,0,0.1423,0.1455,0.1513,0.1615,0.1703,0.1826,0.1964,0.2059,0.2245,0.2393,0.2589,0.2679,0.2491,0.2245,0.1853,0.1612,0.1135,0.1278,0.0972,0.0624,0.0491,0.0353,0.1157,0.1108,0.1111,0.1113,0.1115,0.1116,0.1393,0.1428,0.1504,0.1603,0.1719,0.1881,0.1996,0.2182,0.239,0.2684,0.2746,0.2951,0.2472,0.1962,0.1602,0.0771,0.089,0.0488,0.0408,0.0376,0.025,0.0969,0.0813,0.0814,0.0815,0.0816,0.0817,0,0.1344,0.1404,0.1494,0.1631,0.1766,0.1842,0.2072,0.2236,0.2507,0.2824,0.3045,0.2879,0.2283,0.1638,0.0555,0.0001,-0.0148,-0.0297,-0.043,-0.0447,0.0204,0.0159,-0.0201,-0.0201,-0.02,-0.02,-0.02,-0.0199,0.1318,0.1377,0.1443,0.1637,0.1755,0.1963,0.2105,0.2385,0.2653,0.3001,0.3137,0.3215,0.2534,0.0728,-0.0564,-0.082,-0.1103,-0.119,-0.1277,-0.0893,-0.0827,-0.0764,-0.0838,-0.1402,-0.1403,-0.1916,-0.1922,-0.1926]}],[{"header":{"parameterUnit":"m.s-1","parameterCategory":2,"la1":30.2991,"la2":30.254,"lo1":-89.0895,"lo2":-89.0444,"dy":0.0017,"dx":0.0017,"nx":28,"ny":28,"refTime":"2023-08-13T09:00:00:Z","depth":"2","parameterNumber":2,"parameterNumberName":"U-component_of_CURRENTS"},"data":[0,0,0,0,0,0,0,0,0,0,0,0,0,0,0,0,0,0,0,0,0,0,0,0,0,0,0,0,0,0,0,0,0,0,0,0,0,0,0,0,0,0,0,0,0,0,0,0,0,0,0,0,0,0,0,0,0,0,0.3369,0.3371,0,0.3482,0.3482,0.3483,0.3544,0.3545,0.3546,0.3547,0.3683,0.3686,0.3689,0,0,0,0,0,0,0,0,0,0,0,0,0,0.3283,0.3283,0.3369,0.3371,0.3373,0.3481,0.3482,0.3483,0.3544,0.3545,0.3547,0.3548,0.3683,0.3686,0.3689,0,0,0,0,0,0,0,0,0,0,0,0,0,0.3342,0.3283,0.3369,0.3424,0.343,0.3481,0.3482,0.3483,0.3544,0.3546,0.3547,0.3548,0.3681,0.3685,0.3689,0.3685,0,0,0.3702,0.3704,0,0,0,0,0,0,0,0,0.3338,0.3344,0.3413,0.342,0.3428,0.3508,0.3503,0.3555,0.3544,0.3491,0.3547,0.3549,0.3632,0.364,0.3645,0.3692,0.3698,0.3702,0.3705,0.3707,0.3708,0,0,0,0,0,0,0,0.3334,0.334,0.3405,0.3416,0.3425,0.347,0.3477,0.3512,0.3546,0.3496,0.3503,0.3529,0.3635,0.3641,0.3649,0.37,0.3702,0.3706,0.3708,0.371,0.3984,0.3989,0,0,0,0,0,0,0.3332,0.3335,0.3401,0.3409,0.3396,0.347,0.3479,0.3474,0.3545,0.356,0.3528,0.3532,0.3633,0.3644,0.3654,0.3773,0.3706,0.371,0.3713,0.3979,0.3985,0.399,0,0,0,0,0,0,0.3329,0.3335,0.3397,0.3384,0.3396,0.347,0.3464,0.3475,0.353,0.3571,0.3584,0.3577,0.3635,0.3648,0.3782,0.3775,0.3712,0.3716,0.3974,0.3981,0.3988,0.3935,0,0,0,0,0,0,0.3325,0.3333,0.3343,0.3382,0.3397,0.345,0.3464,0.3477,0.3545,0.3552,0.3616,0.3628,0.3637,0.3776,0.3786,0.3779,0.3719,0.3967,0.3977,0.3986,0.3931,0.394,0.3948,0,0,0,0,0,0.3321,0.3313,0.3342,0.3352,0.3402,0.3453,0.3463,0.3516,0.3546,0.3569,0.3666,0.3628,0.384,0.3785,0.3794,0.3788,0.3963,0.3974,0.3985,0.3927,0.3938,0.3947,0,0,0,0,0,0,0.3247,0.3321,0.3353,0.3359,0.3421,0.3467,0.3493,0.3541,0.3628,0.3654,0.3695,0.3715,0.3826,0.3851,0.3788,0.3911,0.3892,0.3906,0.3845,0.3856,0.3864,0.3863,0.3722,0,0,0,0,0,0.3245,0.3275,0.3346,0.3351,0.3385,0.3451,0.3487,0.3533,0.361,0.3649,0.3702,0.3786,0.3868,0.3902,0.3974,0.4034,0.4073,0.4047,0.4055,0.4061,0.408,0.4184,0.4201,0.4026,0.4026,0.4026,0,0,0.3213,0.3262,0.3275,0.3344,0.3387,0.3439,0.3473,0.3536,0.3592,0.3651,0.3746,0.3821,0.3906,0.3986,0.4033,0.4004,0.413,0.4075,0.4077,0.4094,0.4197,0.4213,0.4227,0.4034,0.4032,0.4031,0,0,0.3177,0.3212,0.3244,0.3302,0.3402,0.3446,0.348,0.3564,0.3616,0.3728,0.3797,0.3893,0.3995,0.4045,0.4087,0.4196,0.4186,0.4218,0.4223,0.4323,0.4336,0.4348,0.438,0.4395,0.4198,0.4198,0.4198,0,0.3147,0.3193,0.3257,0.3311,0.3367,0.3456,0.3511,0.3566,0.369,0.3762,0.3765,0.3981,0.4016,0.4139,0.4169,0.4198,0.4256,0.4151,0.4324,0.4338,0.4351,0.4382,0.4399,0.4197,0.4197,0.4197,0.4197,0,0.3153,0.3203,0.3219,0.3324,0.3384,0.3443,0.3542,0.3617,0.3697,0.3778,0.3938,0.4012,0.4147,0.4148,0.418,0.4299,0.4307,0.4326,0.4269,0.4364,0.4392,0.4411,0.4195,0.4196,0.4196,0.4196,0,0,0.3066,0.3204,0.3218,0.3272,0.3411,0.3449,0.3555,0.3689,0.3776,0.3886,0.3999,0.4121,0.4192,0.4252,0.4295,0.4345,0.4437,0.437,0.4376,0.4349,0.4635,0.4331,0.4323,0.4495,0.45,0.4503,0.4599,0,0.3071,0.3158,0.3243,0.3326,0.3378,0.3498,0.358,0.3713,0.3832,0.3953,0.4067,0.4187,0.4224,0.4274,0.4354,0.4455,0.4496,0.4407,0.4597,0.4602,0.4277,0.4338,0.408,0.4119,0.4617,0.462,0.4623,0,0.3071,0.3137,0.3221,0.3345,0.3381,0.3447,0.3615,0.3709,0.3909,0.4006,0.4174,0.4268,0.4415,0.4385,0.4613,0.4572,0.4611,0.4641,0.4646,0.4398,0.4334,0.4124,0.4135,0.4655,0.4652,0.465,0.4648,0,0.2989,0.312,0.3187,0.3232,0.3383,0.3454,0.355,0.3742,0.3833,0.4052,0.4131,0.4358,0.4448,0.4593,0.4696,0.4681,0.4886,0.487,0.4624,0.4602,0.4435,0.4388,0.4988,0.4988,0.4988,0.4987,0.4987,0,0.2964,0.3013,0.3155,0.3189,0.3269,0.3404,0.3519,0.3657,0.3841,0.3958,0.4162,0.4288,0.451,0.4651,0.4738,0.4745,0.4948,0.4629,0.4614,0.4403,0.4354,0.4875,0.4861,0.4991,0.499,0.4989,0.4989,0,0.286,0.2962,0.303,0.3184,0.3231,0.3291,0.3463,0.3536,0.3748,0.3898,0.396,0.4265,0.448,0.4629,0.4836,0.474,0.4794,0.4728,0.4415,0.4354,0.4426,0.441,0.4459,0.4449,0.4441,0.4434,0.4428,0,0.2814,0.2841,0.2984,0.3009,0.3083,0.3188,0.3247,0.3467,0.3551,0.389,0.394,0.4199,0.4335,0.4501,0.4486,0.4509,0.4676,0.4132,0.4003,0.4395,0.4378,0.4374,0.4369,0.3787,0.3776,0.3768,0.3761,0,0.27,0.2759,0.2804,0.2873,0.2935,0.3001,0.312,0.3172,0.3438,0.3574,0.3805,0.3937,0.4116,0.4042,0.4001,0.3989,0.4101,0.3935,0.4533,0.3895,0.3751,0.3736,0.3757,0.3684,0.3691,0.3697,0.3701,0.3704,0.2588,0.259,0.2653,0.2714,0.2762,0.2814,0.2829,0.2967,0.3091,0.3255,0.3498,0.3592,0.3646,0.3477,0.3414,0.3368,0.36,0.3414,0.3448,0.349,0.333,0.3172,0.2966,0.2969,0.2972,0.2974,0.2977,0,0.2431,0.2458,0.2487,0.2539,0.2521,0.2637,0.2715,0.271,0.2794,0.2954,0.3055,0.283,0.2802,0.2961,0.2755,0.2618,0.2698,0.2527,0.2662,0.2737,0.2805,0.2617,0.2061,0.2058,0.2055,0.2052,0,0,0.234,0.2315,0.2356,0.2298,0.2329,0.2288,0.2313,0.2353,0.2432,0.2393,0.242,0.2591,0.2787,0.2357,0.2292,0.2167,0.2443,0.209,0.2831,0.3066,0.313,0.3321,0.3112,0,0,0,0,0]},{"header":{"parameterUnit":"m.s-1","parameterCategory":2,"la1":30.2991,"la2":30.254,"lo1":-89.0895,"lo2":-89.0444,"dy":0.0017,"dx":0.0017,"nx":28,"ny":28,"refTime":"2023-08-13T09:00:00:Z","depth":"2","parameterNumber":3,"parameterNumberName":"V-component_of_CURRENTS"},"data":[0,0,0,0,0,0,0,0,0,0,0,0,0,0,0,0,0,0,0,0,0,0,0,0,0,0,0,0,0,0,0,0,0,0,0,0,0,0,0,0,0,0,0,0,0,0,0,0,0,0,0,0,0,0,0,0,0,0,-0.0904,-0.0905,0,-0.0985,-0.0986,-0.0987,-0.1011,-0.1011,-0.101,-0.101,-0.1059,-0.1061,-0.1063,0,0,0,0,0,0,0,0,0,0,0,0,0,-0.0809,-0.0811,-0.0904,-0.0905,-0.0906,-0.0985,-0.0986,-0.0987,-0.1011,-0.1011,-0.101,-0.101,-0.1059,-0.1061,-0.1063,0,0,0,0,0,0,0,0,0,0,0,0,0,-0.0866,-0.0811,-0.0904,-0.0927,-0.093,-0.0985,-0.0986,-0.0987,-0.1011,-0.1011,-0.101,-0.1009,-0.1058,-0.1061,-0.1063,-0.1092,0,0,-0.1071,-0.1072,0,0,0,0,0,0,0,0,-0.0863,-0.087,-0.0923,-0.0926,-0.0929,-0.0987,-0.0971,-0.1021,-0.1011,-0.098,-0.101,-0.1009,-0.1033,-0.1037,-0.1055,-0.1094,-0.1096,-0.1071,-0.1073,-0.1074,-0.1075,0,0,0,0,0,0,0,-0.0859,-0.0867,-0.0936,-0.0924,-0.0928,-0.0948,-0.0955,-0.0981,-0.1009,-0.0983,-0.0985,-0.0994,-0.1034,-0.1052,-0.1056,-0.1097,-0.1071,-0.1074,-0.1075,-0.1076,-0.1053,-0.1051,0,0,0,0,0,0,-0.0848,-0.0863,-0.0934,-0.0939,-0.0894,-0.095,-0.0957,-0.0969,-0.1009,-0.1015,-0.0995,-0.0995,-0.1048,-0.1053,-0.1058,-0.1014,-0.1074,-0.1076,-0.1078,-0.1055,-0.1053,-0.105,0,0,0,0,0,0,-0.0846,-0.0854,-0.093,-0.0902,-0.0913,-0.0952,-0.0965,-0.0971,-0.0969,-0.1018,-0.1023,-0.0983,-0.1048,-0.1054,-0.1023,-0.1019,-0.1078,-0.108,-0.1058,-0.1054,-0.1051,-0.0977,0,0,0,0,0,0,-0.0843,-0.0852,-0.0863,-0.0902,-0.0914,-0.0941,-0.0966,-0.0973,-0.0977,-0.0977,-0.1011,-0.1016,-0.1048,-0.1018,-0.1026,-0.1023,-0.1082,-0.1061,-0.1056,-0.1053,-0.0982,-0.0972,-0.0963,0,0,0,0,0,-0.0839,-0.0843,-0.0863,-0.0872,-0.0926,-0.094,-0.0947,-0.0973,-0.0976,-0.0969,-0.0962,-0.1014,-0.0999,-0.1018,-0.1027,-0.1026,-0.1063,-0.1058,-0.1053,-0.0987,-0.0974,-0.0963,0,0,0,0,0,0,-0.0806,-0.0848,-0.087,-0.0887,-0.0906,-0.0943,-0.0944,-0.0958,-0.0953,-0.0939,-0.098,-0.0984,-0.0956,-0.0989,-0.1009,-0.1002,-0.1043,-0.1039,-0.0989,-0.0978,-0.0968,-0.0917,-0.1084,0,0,0,0,0,-0.0807,-0.0819,-0.0857,-0.0868,-0.0873,-0.0905,-0.0916,-0.0923,-0.0925,-0.0923,-0.0942,-0.095,-0.0949,-0.0957,-0.0961,-0.0962,-0.0972,-0.0966,-0.0956,-0.0948,-0.0908,-0.0918,-0.0906,-0.1034,-0.1034,-0.1035,0,0,-0.0798,-0.0822,-0.0831,-0.0862,-0.0878,-0.0862,-0.0908,-0.0901,-0.0878,-0.0929,-0.0893,-0.091,-0.0933,-0.0919,-0.0914,-0.0947,-0.0915,-0.0941,-0.0934,-0.0898,-0.0912,-0.09,-0.0889,-0.1031,-0.1032,-0.1032,0,0,-0.0758,-0.0802,-0.0786,-0.0793,-0.0805,-0.0823,-0.081,-0.0828,-0.0827,-0.08,-0.082,-0.082,-0.0833,-0.0851,-0.0862,-0.0801,-0.0851,-0.081,-0.074,-0.0752,-0.0742,-0.0733,-0.0729,-0.0721,-0.0822,-0.0822,-0.0822,0,-0.0742,-0.0728,-0.0781,-0.0755,-0.0739,-0.0792,-0.074,-0.0759,-0.0759,-0.0727,-0.0767,-0.0747,-0.0801,-0.0765,-0.0752,-0.0784,-0.0777,-0.0792,-0.074,-0.0732,-0.0724,-0.0723,-0.0714,-0.0818,-0.0818,-0.0819,-0.0819,0,-0.0677,-0.0664,-0.0648,-0.0633,-0.0628,-0.0593,-0.0614,-0.0595,-0.0604,-0.061,-0.0566,-0.0631,-0.0612,-0.0657,-0.0692,-0.0658,-0.0666,-0.0719,-0.0775,-0.0707,-0.0709,-0.0702,-0.0812,-0.0813,-0.0815,-0.0816,0,0,-0.0614,-0.0603,-0.0588,-0.0542,-0.0548,-0.0516,-0.0481,-0.0439,-0.0354,-0.0419,-0.0325,-0.0402,-0.043,-0.0441,-0.0508,-0.0547,-0.053,-0.0601,-0.0604,-0.0602,-0.0521,-0.0624,-0.0626,-0.0568,-0.0566,-0.0565,-0.0545,0,-0.0528,-0.0441,-0.0463,-0.0357,-0.0302,-0.0324,-0.027,-0.0242,-0.0221,-0.0152,-0.0248,-0.02,-0.0354,-0.0333,-0.0397,-0.0459,-0.0503,-0.0527,-0.0579,-0.058,-0.0686,-0.0619,-0.0564,-0.055,-0.0539,-0.0537,-0.0537,0,-0.0429,-0.0381,-0.0262,-0.0174,-0.0146,-0.0089,0.0043,0.0086,0.0135,0.0152,0.0149,0.0087,0.0036,-0.0116,-0.0229,-0.0225,-0.0356,-0.0449,-0.0452,-0.056,-0.0669,-0.0615,-0.0537,-0.0525,-0.0526,-0.0526,-0.0527,0,-0.0306,-0.0224,-0.0112,-0.0086,-0.001,0.0072,0.0125,0.0205,0.0294,0.0362,0.043,0.0352,0.0335,0.017,-0.0075,-0.0122,-0.0198,-0.0298,-0.0517,-0.0525,-0.0493,-0.0503,-0.0384,-0.0385,-0.0385,-0.0385,-0.0385,0,-0.0187,-0.0089,-0.0032,0.0038,0.0212,0.022,0.0424,0.0472,0.0578,0.0725,0.06,0.0689,0.0406,0.0299,0.0056,-0.019,-0.0108,-0.0466,-0.052,-0.0468,-0.0475,-0.047,-0.048,-0.0384,-0.0384,-0.0384,-0.0384,0,-0.0054,-0.0031,0.0113,0.0224,0.0278,0.0415,0.0587,0.0733,0.0804,0.0994,0.1011,0.0965,0.0833,0.0522,0.0277,-0.0012,-0.0247,-0.0372,-0.0293,-0.0341,-0.0593,-0.0599,-0.0576,-0.058,-0.0583,-0.0585,-0.0587,0,0.0023,0.0109,0.0263,0.0359,0.0425,0.0608,0.0743,0.0849,0.1004,0.1177,0.1281,0.1201,0.1128,0.0715,0.0271,-0.0157,-0.0236,-0.043,-0.0558,-0.0554,-0.0609,-0.0611,-0.0613,-0.047,-0.047,-0.0471,-0.0472,0,0.0178,0.0231,0.0342,0.0534,0.0691,0.0877,0.1074,0.1228,0.1377,0.1513,0.1688,0.1634,0.1227,0.0802,0.0169,-0.0112,-0.0363,-0.0465,-0.042,-0.0466,-0.0463,-0.0515,-0.0517,-0.0478,-0.0477,-0.0477,-0.0476,-0.0476,0.0295,0.04,0.0537,0.0729,0.0905,0.1146,0.1334,0.1534,0.1784,0.1938,0.188,0.1756,0.1271,0.0438,0.0036,-0.0378,-0.0426,-0.0635,-0.0627,-0.062,-0.0647,-0.0654,-0.0707,-0.0707,-0.0708,-0.0708,-0.0709,0,0.0428,0.054,0.0718,0.0953,0.1171,0.1233,0.1552,0.1746,0.2054,0.2022,0.2025,0.1485,0.0987,0.0519,-0.0117,-0.057,-0.0547,-0.0671,-0.0553,-0.0547,-0.0542,-0.056,-0.0599,-0.0599,-0.0599,-0.0599,0,0,0.0507,0.0686,0.0777,0.1146,0.1316,0.1632,0.1826,0.21,0.2179,0.2104,0.1919,0.1567,0.1027,0.0564,0.0044,-0.0252,-0.0293,-0.0303,-0.0361,-0.0156,-0.0144,-0.0507,-0.053,0,0,0,0,0]}],[{"header":{"parameterUnit":"m.s-1","parameterCategory":2,"la1":30.2991,"la2":30.254,"lo1":-89.0895,"lo2":-89.0444,"dy":0.0017,"dx":0.0017,"nx":28,"ny":28,"refTime":"2023-08-13T09:00:00:Z","depth":"4","parameterNumber":2,"parameterNumberName":"U-component_of_CURRENTS"},"data":[0,0,0,0,0,0,0,0,0,0,0,0,0,0,0,0,0,0,0,0,0,0,0,0,0,0,0,0,0,0,0,0,0,0,0,0,0,0,0,0,0,0,0,0,0,0,0,0,0,0,0,0,0,0,0,0,0,0,0.0984,0.0984,0,0.1047,0.1048,0.105,0.1198,0.12,0.1202,0.1204,0.12,0.1198,0.1196,0,0,0,0,0,0,0,0,0,0,0,0,0,0.0993,0.0993,0.0984,0.0984,0.0984,0.1046,0.1048,0.105,0.1197,0.12,0.1202,0.1205,0.1201,0.1199,0.1196,0,0,0,0,0,0,0,0,0,0,0,0,0,0.1026,0.0993,0.0984,0.1056,0.1062,0.1046,0.1048,0.1051,0.1197,0.12,0.1203,0.1206,0.1202,0.1199,0.1196,0.1117,0,0,0.1187,0.1186,0,0,0,0,0,0,0,0,0.1024,0.1028,0.1046,0.1051,0.1058,0.1107,0.105,0.1066,0.1196,0.1158,0.1204,0.1207,0.1153,0.1154,0.1177,0.1117,0.1117,0.1187,0.1185,0.1184,0.1183,0,0,0,0,0,0,0,0.1022,0.1025,0.1021,0.1045,0.1052,0.1084,0.1094,0.1055,0.1145,0.1161,0.1169,0.1157,0.1158,0.118,0.1177,0.1117,0.1187,0.1184,0.1182,0.1181,0.1292,0.1296,0,0,0,0,0,0,0.0987,0.1023,0.1018,0.1021,0.1035,0.1081,0.1092,0.1098,0.1148,0.1155,0.1154,0.1163,0.1183,0.1181,0.1178,0.1266,0.1184,0.1181,0.1179,0.1287,0.1293,0.1298,0,0,0,0,0,0,0.0988,0.0987,0.1016,0.1014,0.1018,0.1076,0.1082,0.1097,0.1155,0.1141,0.1151,0.12,0.1185,0.1182,0.1211,0.126,0.1179,0.1177,0.1282,0.1289,0.1295,0.1326,0,0,0,0,0,0,0.0988,0.0987,0.1018,0.1011,0.1017,0.1043,0.1079,0.1096,0.1134,0.1149,0.118,0.1183,0.1188,0.1216,0.1208,0.1254,0.1174,0.1276,0.1285,0.1293,0.1319,0.1333,0.1345,0,0,0,0,0,0.0989,0.1004,0.1019,0.102,0.1044,0.1042,0.1052,0.1109,0.1134,0.1172,0.1209,0.1184,0.1269,0.1214,0.1205,0.1252,0.1271,0.1282,0.1292,0.1313,0.133,0.1345,0,0,0,0,0,0,0.1021,0.1018,0.1036,0.1052,0.1062,0.1065,0.1094,0.1114,0.1173,0.1193,0.1196,0.1201,0.1256,0.1256,0.1197,0.1327,0.1283,0.1292,0.1303,0.1318,0.1331,0.1329,0.1172,0,0,0,0,0,0.1033,0.1046,0.1045,0.1054,0.1062,0.108,0.1095,0.1123,0.1146,0.1179,0.1212,0.1256,0.1284,0.1302,0.1328,0.1353,0.135,0.1403,0.1416,0.1426,0.143,0.1457,0.147,0.1333,0.1333,0.1332,0,0,0.103,0.1037,0.1039,0.1061,0.1074,0.1104,0.1103,0.1121,0.1169,0.1156,0.1259,0.128,0.1302,0.1369,0.1396,0.1375,0.1475,0.144,0.1447,0.1445,0.1469,0.1481,0.1492,0.134,0.1339,0.1337,0,0,0.1028,0.1052,0.1073,0.1092,0.1112,0.1127,0.1134,0.1169,0.1224,0.1284,0.1312,0.136,0.1417,0.145,0.1464,0.1557,0.1535,0.16,0.1655,0.1681,0.1691,0.1699,0.173,0.174,0.1613,0.1614,0.1614,0,0.104,0.1064,0.1076,0.1112,0.1125,0.114,0.1167,0.1217,0.1272,0.1313,0.1339,0.1449,0.1456,0.1509,0.1579,0.1576,0.1601,0.1572,0.169,0.1698,0.1705,0.1735,0.1746,0.1616,0.1616,0.1616,0.1615,0,0.1048,0.1094,0.11,0.1159,0.1185,0.1196,0.1243,0.1311,0.1367,0.1417,0.1506,0.1532,0.1605,0.1629,0.1628,0.1706,0.171,0.1685,0.1624,0.1719,0.1748,0.1758,0.162,0.1619,0.1618,0.1618,0,0,0.1005,0.1091,0.1104,0.1148,0.1206,0.1221,0.1305,0.1375,0.1443,0.1529,0.1613,0.1678,0.1707,0.173,0.1736,0.1764,0.1839,0.1768,0.1768,0.1757,0.1921,0.1793,0.1792,0.1836,0.1838,0.184,0.1923,0,0.1014,0.1084,0.1128,0.1203,0.1235,0.129,0.1373,0.1449,0.1521,0.1626,0.1661,0.175,0.1742,0.1785,0.1814,0.1831,0.187,0.182,0.187,0.1872,0.1708,0.18,0.1846,0.1931,0.1933,0.1935,0.1936,0,0.1011,0.1064,0.1126,0.1237,0.126,0.1323,0.1434,0.1517,0.1647,0.171,0.1788,0.1829,0.1902,0.1877,0.1946,0.1925,0.1945,0.1944,0.1947,0.1817,0.1762,0.1821,0.1955,0.1953,0.1952,0.1951,0.195,0,0.0955,0.1066,0.1113,0.1143,0.127,0.1334,0.1427,0.1552,0.1628,0.1776,0.1853,0.1919,0.1986,0.2007,0.2026,0.2012,0.2081,0.205,0.1949,0.194,0.2009,0.1999,0.2101,0.2101,0.2101,0.2101,0.21,0,0.0925,0.098,0.1106,0.1134,0.1231,0.1336,0.1447,0.156,0.1696,0.1796,0.1911,0.1967,0.203,0.2071,0.2065,0.2038,0.2118,0.1971,0.1954,0.2029,0.202,0.2017,0.2006,0.2104,0.2103,0.2102,0.2102,0,0.0852,0.0929,0.1001,0.1146,0.1204,0.1285,0.1463,0.1541,0.1707,0.1837,0.1897,0.2033,0.2098,0.2123,0.2154,0.2086,0.2062,0.2032,0.2129,0.2113,0.1902,0.1893,0.1939,0.1935,0.1932,0.1929,0.1927,0,0.0816,0.084,0.0989,0.1039,0.1113,0.1245,0.1337,0.1525,0.1602,0.1848,0.1897,0.2031,0.21,0.2051,0.2073,0.205,0.2017,0.2006,0.1938,0.1907,0.1886,0.1882,0.1878,0.1921,0.1921,0.192,0.1919,0,0.0745,0.08,0.0861,0.0959,0.106,0.1158,0.1313,0.1361,0.1588,0.1743,0.186,0.1909,0.198,0.1971,0.1972,0.1942,0.2006,0.1971,0.1977,0.1914,0.1887,0.1868,0.1868,0.1908,0.1909,0.191,0.1911,0,0.0688,0.0711,0.079,0.0873,0.098,0.1061,0.1155,0.1278,0.139,0.1676,0.1688,0.1847,0.1959,0.1916,0.1902,0.1875,0.1845,0.1778,0.1794,0.1807,0.1717,0.166,0.1608,0,0,0,0,0,0.0628,0.0652,0.0706,0.0799,0.0891,0.0965,0.1129,0.1223,0.1441,0.149,0.1595,0.1658,0.1703,0.1748,0.1689,0.1809,0.1822,0.173,0.1746,0.1845,0.1858,0.1759,0,0,0,0,0,0,0.0587,0.0637,0.0669,0.0711,0.0757,0.0865,0.0968,0.1116,0.1149,0.1367,0.1384,0.1549,0.1582,0.171,0.1652,0.1666,0.1641,0.1813,0.1808,0.1838,0.185,0.186,0.1763,0,0,0,0,0]},{"header":{"parameterUnit":"m.s-1","parameterCategory":2,"la1":30.2991,"la2":30.254,"lo1":-89.0895,"lo2":-89.0444,"dy":0.0017,"dx":0.0017,"nx":28,"ny":28,"refTime":"2023-08-13T09:00:00:Z","depth":"4","parameterNumber":3,"parameterNumberName":"V-component_of_CURRENTS"},"data":[0,0,0,0,0,0,0,0,0,0,0,0,0,0,0,0,0,0,0,0,0,0,0,0,0,0,0,0,0,0,0,0,0,0,0,0,0,0,0,0,0,0,0,0,0,0,0,0,0,0,0,0,0,0,0,0,0,0,0.0033,0.0033,0,-0.0048,-0.005,-0.0052,-0.0168,-0.0169,-0.017,-0.017,-0.0242,-0.0243,-0.0244,0,0,0,0,0,0,0,0,0,0,0,0,0,0.0014,0.0014,0.0033,0.0033,0.0033,-0.0048,-0.005,-0.0053,-0.0168,-0.0169,-0.017,-0.0171,-0.0242,-0.0243,-0.0244,0,0,0,0,0,0,0,0,0,0,0,0,0,-0.0025,0.0015,0.0033,-0.0025,-0.003,-0.0048,-0.005,-0.0053,-0.0168,-0.0169,-0.017,-0.0171,-0.0241,-0.0243,-0.0244,-0.023,0,0,-0.025,-0.025,0,0,0,0,0,0,0,0,-0.0023,-0.0026,-0.0017,-0.0021,-0.0026,-0.0088,-0.0083,-0.0108,-0.0167,-0.0129,-0.017,-0.0172,-0.018,-0.0187,-0.0218,-0.0234,-0.0237,-0.025,-0.0251,-0.0252,-0.0252,0,0,0,0,0,0,0,-0.002,-0.0023,-0.0012,-0.0016,-0.0022,-0.0071,-0.0079,-0.0089,-0.0156,-0.0132,-0.0138,-0.0126,-0.0185,-0.0216,-0.022,-0.0238,-0.025,-0.0251,-0.0252,-0.0253,-0.0358,-0.036,0,0,0,0,0,0,0.0021,-0.002,-0.001,-0.0013,-0.0013,-0.0068,-0.0078,-0.0077,-0.0157,-0.0166,-0.0125,-0.0131,-0.0213,-0.0218,-0.0223,-0.0253,-0.0252,-0.0253,-0.0254,-0.0356,-0.0358,-0.036,0,0,0,0,0,0,0.0021,0.0022,-0.0006,-0.0008,-0.0014,-0.0065,-0.0065,-0.0078,-0.0112,-0.0149,-0.0161,-0.0143,-0.0214,-0.022,-0.0252,-0.0255,-0.0254,-0.0256,-0.0354,-0.0357,-0.0359,-0.0285,0,0,0,0,0,0,0.002,0.0022,0.0017,-0.0005,-0.0011,-0.0014,-0.0063,-0.0078,-0.0096,-0.0105,-0.0167,-0.0176,-0.0215,-0.025,-0.0254,-0.0257,-0.0257,-0.0352,-0.0355,-0.0358,-0.0285,-0.0284,-0.0284,0,0,0,0,0,0.002,0.003,0.0017,0.0019,-0.0011,-0.0011,-0.0021,-0.007,-0.0095,-0.0108,-0.0162,-0.0174,-0.0275,-0.0251,-0.0256,-0.026,-0.035,-0.0354,-0.0358,-0.0285,-0.0285,-0.0284,0,0,0,0,0,0,0.0016,0.002,0.0005,0.0013,0.0005,-0.0026,-0.0037,-0.006,-0.0115,-0.0124,-0.0177,-0.0189,-0.0227,-0.0257,-0.023,-0.0309,-0.0322,-0.0327,-0.0265,-0.0265,-0.0264,-0.0252,-0.0258,0,0,0,0,0,0.0021,0.0029,0.0024,0.0032,0.003,-0.0002,-0.0013,-0.0034,-0.0068,-0.0095,-0.0145,-0.0202,-0.0247,-0.0264,-0.0313,-0.0329,-0.037,-0.0347,-0.0346,-0.0345,-0.0345,-0.0416,-0.042,-0.0373,-0.0373,-0.0373,0,0,0.003,0.0031,0.0037,0.0033,0.0016,0.0017,-0.0017,-0.0015,-0.0029,-0.0088,-0.0144,-0.0194,-0.0255,-0.0298,-0.0317,-0.0318,-0.0382,-0.035,-0.0348,-0.0349,-0.042,-0.0424,-0.0428,-0.0376,-0.0375,-0.0375,0,0,0.0062,0.0048,0.0063,0.0057,0.0057,0.0038,0.0047,0.0014,-0.0024,-0.0057,-0.0121,-0.0173,-0.0236,-0.0292,-0.0322,-0.0344,-0.038,-0.0365,-0.0339,-0.0406,-0.041,-0.0413,-0.0461,-0.0469,-0.0359,-0.0359,-0.0359,0,0.0069,0.0085,0.0068,0.0077,0.008,0.0054,0.007,0.0032,-0.0015,-0.0043,-0.0067,-0.0196,-0.0238,-0.0295,-0.0315,-0.0338,-0.0379,-0.0322,-0.0401,-0.0406,-0.0411,-0.0459,-0.0469,-0.0356,-0.0356,-0.0356,-0.0357,0,0.0111,0.0115,0.0126,0.0124,0.012,0.0136,0.0105,0.0074,0.0035,-0.0008,-0.008,-0.0156,-0.0232,-0.0258,-0.0288,-0.0348,-0.0366,-0.039,-0.0387,-0.041,-0.046,-0.0472,-0.0351,-0.0352,-0.0353,-0.0354,0,0,0.0151,0.0157,0.0158,0.0163,0.015,0.0158,0.0132,0.0102,0.008,0.0006,-0.0041,-0.0132,-0.0179,-0.022,-0.0273,-0.0329,-0.0392,-0.0366,-0.0371,-0.0386,-0.0531,-0.0476,-0.0484,-0.0425,-0.0427,-0.0428,-0.0547,0,0.0187,0.0221,0.021,0.0232,0.0245,0.021,0.0187,0.0151,0.0099,0.0037,-0.005,-0.0114,-0.0162,-0.0193,-0.026,-0.0365,-0.0422,-0.0357,-0.0532,-0.0537,-0.0463,-0.0495,-0.0435,-0.0556,-0.0558,-0.056,-0.0562,0,0.0224,0.0244,0.0284,0.0284,0.0286,0.029,0.0257,0.0239,0.0149,0.0102,0.0023,-0.0056,-0.0155,-0.0192,-0.0371,-0.0327,-0.0422,-0.0501,-0.0508,-0.049,-0.0504,-0.0538,-0.0584,-0.0582,-0.058,-0.0579,-0.0578,0,0.0264,0.0287,0.0326,0.0329,0.0327,0.0328,0.0321,0.0258,0.024,0.0147,0.0115,-0.0022,-0.0093,-0.0233,-0.0394,-0.039,-0.0589,-0.0606,-0.0648,-0.0645,-0.0688,-0.0683,-0.0735,-0.0734,-0.0734,-0.0734,-0.0734,0,0.03,0.0324,0.035,0.0371,0.0403,0.0383,0.0394,0.0355,0.0302,0.0282,0.016,0.01,-0.011,-0.0249,-0.0389,-0.0548,-0.0591,-0.0648,-0.0676,-0.0655,-0.0645,-0.0695,-0.0689,-0.0738,-0.0737,-0.0736,-0.0736,0,0.0326,0.0345,0.0391,0.0416,0.0426,0.0451,0.0459,0.0457,0.0405,0.0374,0.0349,0.0174,-0.0008,-0.0204,-0.0446,-0.0529,-0.0691,-0.0737,-0.0688,-0.071,-0.0702,-0.0692,-0.0795,-0.0794,-0.0793,-0.0793,-0.0792,0,0.034,0.0373,0.0435,0.0467,0.0482,0.0517,0.0535,0.051,0.0507,0.0419,0.04,0.022,0.0091,-0.0204,-0.0416,-0.067,-0.0699,-0.0765,-0.0745,-0.0694,-0.0711,-0.0702,-0.0692,-0.0791,-0.0791,-0.079,-0.079,0,0.0369,0.0399,0.0437,0.0511,0.0553,0.0591,0.0615,0.0621,0.0588,0.0554,0.0442,0.0276,0.0068,-0.0187,-0.0382,-0.0565,-0.0711,-0.0758,-0.0761,-0.0743,-0.0691,-0.0706,-0.0698,-0.0788,-0.0788,-0.0788,-0.0789,0,0.0389,0.042,0.0481,0.0539,0.0596,0.063,0.0646,0.0636,0.0629,0.0549,0.0508,0.0281,0.0137,-0.0134,-0.0318,-0.0486,-0.0527,-0.0553,-0.0568,-0.0573,-0.0466,-0.0365,-0.0389,0,0,0,0,0,0.0404,0.0439,0.0498,0.0555,0.0612,0.0643,0.0677,0.0683,0.0669,0.0615,0.0566,0.038,0.0094,-0.006,-0.0219,-0.0317,-0.0564,-0.0505,-0.0604,-0.0774,-0.0777,-0.0683,0,0,0,0,0,0,0.0414,0.0469,0.0496,0.0557,0.0597,0.0651,0.0676,0.067,0.0631,0.0598,0.0432,0.0374,0.0071,0.0183,-0.0216,-0.0271,-0.0344,-0.0645,-0.0647,-0.0772,-0.0775,-0.0777,-0.0682,0,0,0,0,0]}]]